5NBSK GBYD-GQNO

Flight info

Callsign 5NBSK
Flight time 2h 25m
Altitude 7000
Route DCT ANITI FL070 R975 ARBEN DCT GQNO
Aircraft A139/L-SDG/C

Departure

Time 2026-04-29 06:15
Airport Banjul International Airport (GBYD)

Arrival

Time 2026-04-29 08:40
Airport Nouakchott–Oumtounsy International Airport (GQNO)
Time Latitude Longitude Altitude Speed Heading
2026-04-29 06:04 13.34297 -16.65335 99 ft 0 kts 130°
2026-04-29 06:10 13.34290 -16.65327 99 ft 4 kts 131°
2026-04-29 06:10 13.34257 -16.65300 99 ft 6 kts 165°
2026-04-29 06:10 13.34209 -16.65302 99 ft 7 kts 181°
2026-04-29 06:11 13.34160 -16.65278 99 ft 8 kts 134°
2026-04-29 06:11 13.34118 -16.65246 99 ft 6 kts 199°
2026-04-29 06:11 13.34090 -16.65275 99 ft 3 kts 231°
2026-04-29 06:11 13.34080 -16.65301 98 ft 3 kts 232°
2026-04-29 06:12 13.34061 -16.65283 98 ft 6 kts 130°
2026-04-29 06:12 13.34026 -16.65241 98 ft 8 kts 131°
2026-04-29 06:12 13.33981 -16.65195 98 ft 8 kts 152°
2026-04-29 06:12 13.33934 -16.65202 97 ft 6 kts 224°
2026-04-29 06:13 13.33904 -16.65227 96 ft 6 kts 220°
2026-04-29 06:13 13.33864 -16.65264 96 ft 8 kts 234°
2026-04-29 06:13 13.33864 -16.65316 96 ft 6 kts 297°
2026-04-29 06:13 13.33874 -16.65331 96 ft 0 kts 310°
2026-04-29 06:14 13.33875 -16.65332 97 ft 1 kts 312°
2026-04-29 06:14 13.33920 -16.65388 107 ft 24 kts 314°
2026-04-29 06:15 13.34119 -16.65617 295 ft 58 kts 312°
2026-04-29 06:15 13.34428 -16.65911 612 ft 64 kts 313°
2026-04-29 06:15 13.34773 -16.66206 880 ft 66 kts 309°
2026-04-29 06:15 13.35216 -16.66451 1126 ft 74 kts 326°
2026-04-29 06:16 13.35691 -16.66655 1380 ft 75 kts 324°
2026-04-29 06:16 13.36202 -16.66887 1472 ft 88 kts 320°
2026-04-29 06:16 13.36819 -16.67188 1533 ft 108 kts 318°
2026-04-29 06:16 13.37529 -16.67566 1650 ft 120 kts 320°
2026-04-29 06:17 13.38293 -16.67980 1793 ft 127 kts 321°
2026-04-29 06:17 13.39085 -16.68408 1952 ft 129 kts 320°
2026-04-29 06:17 13.39875 -16.68847 2108 ft 130 kts 319°
2026-04-29 06:17 13.40678 -16.69299 2258 ft 131 kts 319°
2026-04-29 06:18 13.41485 -16.69758 2396 ft 133 kts 319°
2026-04-29 06:18 13.42301 -16.70223 2541 ft 134 kts 319°
2026-04-29 06:18 13.43127 -16.70697 2683 ft 135 kts 318°
2026-04-29 06:18 13.43953 -16.71172 2821 ft 137 kts 318°
2026-04-29 06:19 13.44778 -16.71648 2969 ft 137 kts 318°
2026-04-29 06:19 13.45616 -16.72134 3113 ft 138 kts 318°
2026-04-29 06:19 13.46463 -16.72623 3255 ft 139 kts 318°
2026-04-29 06:19 13.47306 -16.73112 3405 ft 140 kts 318°
2026-04-29 06:20 13.48161 -16.73607 3562 ft 139 kts 318°
2026-04-29 06:20 13.49013 -16.74102 3697 ft 140 kts 317°
2026-04-29 06:20 13.49871 -16.74600 3846 ft 141 kts 318°
2026-04-29 06:20 13.50731 -16.75100 3980 ft 143 kts 317°
2026-04-29 06:21 13.51593 -16.75600 4125 ft 143 kts 318°
2026-04-29 06:21 13.52474 -16.76111 4274 ft 143 kts 318°
2026-04-29 06:21 13.53348 -16.76620 4413 ft 144 kts 318°
2026-04-29 06:21 13.54225 -16.77130 4554 ft 145 kts 318°
2026-04-29 06:22 13.55109 -16.77644 4705 ft 146 kts 318°
2026-04-29 06:22 13.55987 -16.78153 4850 ft 146 kts 318°
2026-04-29 06:22 13.56867 -16.78665 4999 ft 146 kts 318°
2026-04-29 06:22 13.57755 -16.79179 5144 ft 146 kts 318°
2026-04-29 06:23 13.58646 -16.79697 5280 ft 147 kts 318°
2026-04-29 06:23 13.59545 -16.80220 5424 ft 148 kts 318°
2026-04-29 06:23 13.60441 -16.80740 5563 ft 148 kts 318°
2026-04-29 06:23 13.61348 -16.81268 5700 ft 150 kts 318°
2026-04-29 06:24 13.62256 -16.81795 5847 ft 151 kts 317°
2026-04-29 06:24 13.63180 -16.82330 5951 ft 152 kts 316°
2026-04-29 06:24 13.64108 -16.82872 5981 ft 152 kts 315°
2026-04-29 06:24 13.65023 -16.83410 5981 ft 151 kts 316°
2026-04-29 06:25 13.65948 -16.83952 5959 ft 151 kts 316°
2026-04-29 06:25 13.66855 -16.84481 5960 ft 150 kts 316°
2026-04-29 06:25 13.67767 -16.85012 5944 ft 150 kts 316°
2026-04-29 06:25 13.68687 -16.85550 5926 ft 151 kts 316°
2026-04-29 06:26 13.69608 -16.86086 5930 ft 151 kts 316°
2026-04-29 06:26 13.70514 -16.86613 5946 ft 150 kts 316°
2026-04-29 06:26 13.71443 -16.87153 5932 ft 152 kts 316°
2026-04-29 06:26 13.72359 -16.87685 5944 ft 151 kts 316°
2026-04-29 06:27 13.73290 -16.88229 5937 ft 153 kts 316°
2026-04-29 06:27 13.74222 -16.88770 5946 ft 153 kts 316°
2026-04-29 06:27 13.75150 -16.89309 5955 ft 153 kts 315°
2026-04-29 06:27 13.76084 -16.89857 5947 ft 154 kts 315°
2026-04-29 06:28 13.77017 -16.90399 5951 ft 153 kts 315°
2026-04-29 06:28 13.77949 -16.90942 5947 ft 153 kts 316°
2026-04-29 06:28 13.78876 -16.91485 5947 ft 153 kts 315°
2026-04-29 06:28 13.79813 -16.92031 5946 ft 153 kts 316°
2026-04-29 06:29 13.80742 -16.92573 5944 ft 153 kts 316°
2026-04-29 06:29 13.81665 -16.93112 5942 ft 152 kts 316°
2026-04-29 06:29 13.82586 -16.93646 5943 ft 152 kts 316°
2026-04-29 06:29 13.83515 -16.94186 5940 ft 152 kts 316°
2026-04-29 06:30 13.84439 -16.94725 5930 ft 153 kts 316°
2026-04-29 06:30 13.86288 -16.95801 5948 ft 152 kts 315°
2026-04-29 06:30 13.87223 -16.96347 5944 ft 153 kts 315°
2026-04-29 06:31 13.88151 -16.96891 5940 ft 153 kts 316°
2026-04-29 06:31 13.89074 -16.97428 5952 ft 153 kts 315°
2026-04-29 06:31 13.90006 -16.97971 5950 ft 152 kts 315°
2026-04-29 06:31 13.90923 -16.98507 5944 ft 153 kts 315°
2026-04-29 06:32 13.91858 -16.99053 5939 ft 153 kts 315°
2026-04-29 06:32 13.92783 -16.99592 5944 ft 153 kts 315°
2026-04-29 06:32 13.93710 -17.00134 5946 ft 153 kts 315°
2026-04-29 06:32 13.94646 -17.00680 5950 ft 152 kts 316°
2026-04-29 06:33 13.95573 -17.01222 5957 ft 151 kts 316°
2026-04-29 06:33 13.96495 -17.01761 5946 ft 152 kts 316°
2026-04-29 06:33 13.97409 -17.02292 5942 ft 152 kts 316°
2026-04-29 06:33 13.98335 -17.02832 5942 ft 152 kts 316°
2026-04-29 06:34 13.99262 -17.03371 5949 ft 152 kts 315°
2026-04-29 06:34 14.00197 -17.03918 5944 ft 153 kts 315°
2026-04-29 06:34 14.01122 -17.04456 5952 ft 152 kts 315°
2026-04-29 06:34 14.02042 -17.04997 5940 ft 153 kts 315°
2026-04-29 06:35 14.02976 -17.05543 5941 ft 153 kts 315°
2026-04-29 06:35 14.03900 -17.06082 5946 ft 153 kts 315°
2026-04-29 06:35 14.04838 -17.06630 5952 ft 152 kts 315°
2026-04-29 06:35 14.05764 -17.07172 5954 ft 152 kts 316°
2026-04-29 06:36 14.06679 -17.07707 5954 ft 151 kts 316°
2026-04-29 06:36 14.07600 -17.08247 5945 ft 151 kts 316°
2026-04-29 06:36 14.08526 -17.08785 5949 ft 151 kts 316°
2026-04-29 06:36 14.09452 -17.09325 5944 ft 152 kts 316°
2026-04-29 06:37 14.10379 -17.09866 5944 ft 152 kts 315°
2026-04-29 06:37 14.11301 -17.10406 5943 ft 152 kts 315°
2026-04-29 06:37 14.12216 -17.10945 5945 ft 153 kts 315°
2026-04-29 06:37 14.13144 -17.11489 5951 ft 152 kts 315°
2026-04-29 06:38 14.14073 -17.12035 5946 ft 153 kts 315°
2026-04-29 06:38 14.14999 -17.12576 5949 ft 152 kts 315°
2026-04-29 06:38 14.15918 -17.13113 5952 ft 152 kts 315°
2026-04-29 06:38 14.16853 -17.13663 5946 ft 153 kts 315°
2026-04-29 06:39 14.17779 -17.14203 5955 ft 152 kts 315°
2026-04-29 06:39 14.18702 -17.14746 5954 ft 153 kts 315°
2026-04-29 06:39 14.19631 -17.15289 5968 ft 152 kts 315°
2026-04-29 06:39 14.20543 -17.15823 5976 ft 151 kts 315°
2026-04-29 06:40 14.21468 -17.16366 5972 ft 151 kts 316°
2026-04-29 06:40 14.22382 -17.16900 6019 ft 150 kts 316°
2026-04-29 06:40 14.23295 -17.17431 6023 ft 151 kts 315°
2026-04-29 06:40 14.24219 -17.17969 6040 ft 151 kts 315°
2026-04-29 06:41 14.25142 -17.18510 6056 ft 152 kts 315°
2026-04-29 06:41 14.26060 -17.19046 6077 ft 152 kts 315°
2026-04-29 06:41 14.26984 -17.19586 6105 ft 152 kts 315°
2026-04-29 06:41 14.27909 -17.20129 6130 ft 152 kts 315°
2026-04-29 06:42 14.28837 -17.20672 6153 ft 153 kts 315°
2026-04-29 06:42 14.29777 -17.21223 6179 ft 153 kts 315°
2026-04-29 06:42 14.30699 -17.21764 6207 ft 153 kts 315°
2026-04-29 06:42 14.31623 -17.22305 6231 ft 152 kts 315°
2026-04-29 06:43 14.32549 -17.22850 6253 ft 152 kts 315°
2026-04-29 06:43 14.33469 -17.23389 6278 ft 151 kts 315°
2026-04-29 06:43 14.34392 -17.23929 6293 ft 152 kts 316°
2026-04-29 06:43 14.35314 -17.24468 6318 ft 152 kts 315°
2026-04-29 06:44 14.36228 -17.25001 6341 ft 152 kts 315°
2026-04-29 06:44 14.37153 -17.25544 6358 ft 153 kts 315°
2026-04-29 06:44 14.38083 -17.26090 6386 ft 153 kts 315°
2026-04-29 06:44 14.39013 -17.26634 6416 ft 153 kts 315°
2026-04-29 06:45 14.39945 -17.27179 6440 ft 153 kts 314°
2026-04-29 06:45 14.40885 -17.27731 6460 ft 153 kts 314°
2026-04-29 06:45 14.41809 -17.28275 6484 ft 154 kts 315°
2026-04-29 06:45 14.42739 -17.28818 6510 ft 154 kts 314°
2026-04-29 06:46 14.43673 -17.29365 6537 ft 153 kts 314°
2026-04-29 06:46 14.44607 -17.29916 6557 ft 154 kts 315°
2026-04-29 06:46 14.45535 -17.30460 6587 ft 153 kts 314°
2026-04-29 06:46 14.46473 -17.31011 6617 ft 152 kts 315°
2026-04-29 06:47 14.47396 -17.31553 6634 ft 152 kts 314°
2026-04-29 06:47 14.48315 -17.32092 6656 ft 152 kts 315°
2026-04-29 06:47 14.49241 -17.32635 6679 ft 152 kts 314°
2026-04-29 06:47 14.50155 -17.33173 6697 ft 153 kts 315°
2026-04-29 06:48 14.51088 -17.33719 6719 ft 153 kts 315°
2026-04-29 06:48 14.52026 -17.34267 6748 ft 153 kts 314°
2026-04-29 06:48 14.52950 -17.34811 6764 ft 154 kts 314°
2026-04-29 06:48 14.53891 -17.35363 6793 ft 154 kts 314°
2026-04-29 06:49 14.54831 -17.35915 6819 ft 154 kts 314°
2026-04-29 06:49 14.55758 -17.36460 6838 ft 154 kts 314°
2026-04-29 06:49 14.56703 -17.37015 6869 ft 154 kts 314°
2026-04-29 06:49 14.57634 -17.37563 6891 ft 154 kts 314°
2026-04-29 06:50 14.58563 -17.38108 6916 ft 153 kts 314°
2026-04-29 06:50 14.59489 -17.38654 6937 ft 153 kts 314°
2026-04-29 06:50 14.60419 -17.39200 6955 ft 153 kts 314°
2026-04-29 06:50 14.61357 -17.39751 6964 ft 153 kts 314°
2026-04-29 06:51 14.62290 -17.40299 6969 ft 153 kts 314°
2026-04-29 06:51 14.63214 -17.40842 6974 ft 153 kts 313°
2026-04-29 06:51 14.64149 -17.41393 6972 ft 154 kts 313°
2026-04-29 06:51 14.65086 -17.41942 6976 ft 153 kts 313°
2026-04-29 06:52 14.66016 -17.42491 6975 ft 153 kts 313°
2026-04-29 06:52 14.66944 -17.43035 6971 ft 153 kts 313°
2026-04-29 06:52 14.67876 -17.43585 6964 ft 154 kts 314°
2026-04-29 06:52 14.68819 -17.44138 6968 ft 154 kts 313°
2026-04-29 06:53 14.69750 -17.44687 6960 ft 154 kts 313°
2026-04-29 06:53 14.70688 -17.45238 6959 ft 154 kts 313°
2026-04-29 06:53 14.71619 -17.45787 6968 ft 154 kts 314°
2026-04-29 06:53 14.72549 -17.46332 6975 ft 153 kts 313°
2026-04-29 06:54 14.73482 -17.46882 6975 ft 153 kts 313°
2026-04-29 06:54 14.74546 -17.47093 6983 ft 163 kts 357°
2026-04-29 06:54 14.75538 -17.46540 7022 ft 159 kts 16°
2026-04-29 06:54 14.76454 -17.45883 6958 ft 160 kts 20°
2026-04-29 06:55 14.77368 -17.45207 6939 ft 162 kts 20°
2026-04-29 06:55 14.78282 -17.44517 6955 ft 163 kts 21°
2026-04-29 06:55 14.79207 -17.43813 6979 ft 163 kts 21°
2026-04-29 06:55 14.80113 -17.43119 6979 ft 163 kts 21°
2026-04-29 06:56 14.81033 -17.42413 6975 ft 163 kts 21°
2026-04-29 06:56 14.81948 -17.41707 6965 ft 164 kts 22°
2026-04-29 06:56 14.82863 -17.41001 6966 ft 164 kts 22°
2026-04-29 06:56 14.83782 -17.40290 6970 ft 164 kts 21°
2026-04-29 06:57 14.84699 -17.39581 6975 ft 164 kts 21°
2026-04-29 06:57 14.85618 -17.38868 6966 ft 164 kts 22°
2026-04-29 06:57 14.86521 -17.38169 6963 ft 164 kts 22°
2026-04-29 06:57 14.87444 -17.37455 6969 ft 164 kts 22°
2026-04-29 06:58 14.88349 -17.36754 6978 ft 163 kts 21°
2026-04-29 06:58 14.89264 -17.36044 6968 ft 163 kts 22°
2026-04-29 06:58 14.90167 -17.35342 6957 ft 164 kts 21°
2026-04-29 06:58 14.91085 -17.34630 6965 ft 163 kts 21°
2026-04-29 06:59 14.91997 -17.33922 6963 ft 164 kts 21°
2026-04-29 06:59 14.92918 -17.33208 6969 ft 164 kts 21°
2026-04-29 06:59 14.93834 -17.32499 6969 ft 164 kts 21°
2026-04-29 06:59 14.94759 -17.31783 6977 ft 164 kts 21°
2026-04-29 07:00 14.95668 -17.31077 6976 ft 164 kts 22°
2026-04-29 07:00 14.96598 -17.30356 6974 ft 165 kts 22°
2026-04-29 07:00 14.97510 -17.29647 6970 ft 165 kts 22°
2026-04-29 07:00 14.98429 -17.28933 6970 ft 165 kts 22°
2026-04-29 07:01 14.99362 -17.28208 6968 ft 165 kts 22°
2026-04-29 07:01 15.00281 -17.27494 6970 ft 165 kts 21°
2026-04-29 07:01 15.01195 -17.26783 6966 ft 165 kts 22°
2026-04-29 07:01 15.02121 -17.26065 6970 ft 164 kts 21°
2026-04-29 07:02 15.03039 -17.25352 6966 ft 164 kts 21°
2026-04-29 07:02 15.03962 -17.24635 6966 ft 164 kts 21°
2026-04-29 07:02 15.04881 -17.23920 6956 ft 165 kts 21°
2026-04-29 07:02 15.05804 -17.23205 6962 ft 165 kts 21°
2026-04-29 07:03 15.06722 -17.22491 6961 ft 166 kts 21°
2026-04-29 07:03 15.07642 -17.21777 6969 ft 166 kts 21°
2026-04-29 07:03 15.08573 -17.21054 6975 ft 165 kts 21°
2026-04-29 07:03 15.09498 -17.20335 6975 ft 165 kts 22°
2026-04-29 07:04 15.10422 -17.19615 6966 ft 165 kts 21°
2026-04-29 07:04 15.11337 -17.18904 6968 ft 165 kts 22°
2026-04-29 07:04 15.12265 -17.18180 6961 ft 165 kts 22°
2026-04-29 07:04 15.13180 -17.17467 6969 ft 165 kts 21°
2026-04-29 07:05 15.14106 -17.16745 6967 ft 165 kts 21°
2026-04-29 07:05 15.15022 -17.16032 6971 ft 164 kts 21°
2026-04-29 07:05 15.15934 -17.15323 6963 ft 164 kts 21°
2026-04-29 07:05 15.16856 -17.14605 6960 ft 164 kts 21°
2026-04-29 07:06 15.17773 -17.13891 6961 ft 165 kts 21°
2026-04-29 07:06 15.18695 -17.13174 6962 ft 165 kts 21°
2026-04-29 07:06 15.19611 -17.12462 6963 ft 165 kts 21°
2026-04-29 07:06 15.20542 -17.11737 6969 ft 165 kts 21°
2026-04-29 07:07 15.21457 -17.11025 6969 ft 166 kts 21°
2026-04-29 07:07 15.22384 -17.10303 6969 ft 166 kts 21°
2026-04-29 07:07 15.23308 -17.09585 6971 ft 166 kts 21°
2026-04-29 07:07 15.24234 -17.08864 6974 ft 166 kts 21°
2026-04-29 07:08 15.25159 -17.08143 6965 ft 166 kts 21°
2026-04-29 07:08 15.26086 -17.07421 6969 ft 165 kts 21°
2026-04-29 07:08 15.26702 -17.06940 6964 ft 165 kts 21°
2026-04-29 07:08 15.27930 -17.05983 6969 ft 165 kts 21°
2026-04-29 07:09 15.28846 -17.05269 6971 ft 165 kts 21°
2026-04-29 07:09 15.29761 -17.04555 6968 ft 165 kts 21°
2026-04-29 07:09 15.30687 -17.03832 6962 ft 166 kts 21°
2026-04-29 07:09 15.31605 -17.03118 6966 ft 166 kts 21°
2026-04-29 07:10 15.32530 -17.02397 6973 ft 166 kts 21°
2026-04-29 07:10 15.33457 -17.01674 6980 ft 166 kts 20°
2026-04-29 07:10 15.34382 -17.00955 6981 ft 166 kts 21°
2026-04-29 07:10 15.35313 -17.00229 6983 ft 167 kts 21°
2026-04-29 07:11 15.36244 -16.99504 6989 ft 167 kts 21°
2026-04-29 07:11 15.37178 -16.98775 6992 ft 167 kts 21°
2026-04-29 07:11 15.38110 -16.98048 6994 ft 166 kts 21°
2026-04-29 07:11 15.39024 -16.97335 6993 ft 165 kts 21°
2026-04-29 07:12 15.39956 -16.96608 6985 ft 165 kts 21°
2026-04-29 07:12 15.40872 -16.95892 6972 ft 165 kts 21°
2026-04-29 07:12 15.41788 -16.95176 6974 ft 165 kts 21°
2026-04-29 07:12 15.42721 -16.94448 6978 ft 165 kts 21°
2026-04-29 07:13 15.43642 -16.93730 6983 ft 165 kts 21°
2026-04-29 07:13 15.44561 -16.93012 6976 ft 166 kts 21°
2026-04-29 07:13 15.45489 -16.92287 6972 ft 166 kts 21°
2026-04-29 07:13 15.46410 -16.91568 6977 ft 167 kts 21°
2026-04-29 07:14 15.47341 -16.90842 6983 ft 167 kts 21°
2026-04-29 07:14 15.48275 -16.90113 6983 ft 167 kts 21°
2026-04-29 07:14 15.49200 -16.89391 6988 ft 166 kts 21°
2026-04-29 07:14 15.50126 -16.88667 6984 ft 167 kts 21°
2026-04-29 07:15 15.51056 -16.87940 6971 ft 168 kts 21°
2026-04-29 07:15 15.51994 -16.87208 6980 ft 167 kts 21°
2026-04-29 07:15 15.52922 -16.86481 6981 ft 167 kts 21°
2026-04-29 07:15 15.53847 -16.85759 6991 ft 166 kts 21°
2026-04-29 07:16 15.54775 -16.85033 6980 ft 166 kts 21°
2026-04-29 07:16 15.55703 -16.84307 6983 ft 166 kts 21°
2026-04-29 07:16 15.56623 -16.83588 6968 ft 166 kts 21°
2026-04-29 07:16 15.57559 -16.82856 6970 ft 166 kts 21°
2026-04-29 07:17 15.58481 -16.82137 6979 ft 165 kts 21°
2026-04-29 07:17 15.59399 -16.81416 6966 ft 166 kts 21°
2026-04-29 07:17 15.60332 -16.80688 6969 ft 167 kts 21°
2026-04-29 07:17 15.61258 -16.79963 6966 ft 167 kts 21°
2026-04-29 07:18 15.62196 -16.79229 6976 ft 167 kts 21°
2026-04-29 07:18 15.63115 -16.78509 6966 ft 167 kts 21°
2026-04-29 07:18 15.64061 -16.77770 6967 ft 167 kts 21°
2026-04-29 07:18 15.64986 -16.77046 6970 ft 167 kts 21°
2026-04-29 07:19 15.65917 -16.76317 6960 ft 167 kts 20°
2026-04-29 07:19 15.66846 -16.75591 6968 ft 167 kts 21°
2026-04-29 07:19 15.67770 -16.74866 6961 ft 167 kts 20°
2026-04-29 07:19 15.68698 -16.74139 6964 ft 166 kts 20°
2026-04-29 07:20 15.69626 -16.73413 6961 ft 167 kts 20°
2026-04-29 07:20 15.70555 -16.72686 6971 ft 165 kts 20°
2026-04-29 07:20 15.71483 -16.71959 6958 ft 166 kts 21°
2026-04-29 07:20 15.72406 -16.71235 6950 ft 167 kts 20°
2026-04-29 07:21 15.73350 -16.70497 6962 ft 167 kts 20°
2026-04-29 07:21 15.74281 -16.69766 6965 ft 168 kts 20°
2026-04-29 07:21 15.75225 -16.69028 6977 ft 167 kts 21°
2026-04-29 07:21 15.76146 -16.68306 6971 ft 167 kts 21°
2026-04-29 07:22 15.77080 -16.67574 6971 ft 167 kts 21°
2026-04-29 07:22 15.78005 -16.66849 6968 ft 167 kts 21°
2026-04-29 07:22 15.78942 -16.66112 6959 ft 168 kts 20°
2026-04-29 07:22 15.79875 -16.65381 6974 ft 167 kts 20°
2026-04-29 07:23 15.80810 -16.64648 6969 ft 167 kts 22°
2026-04-29 07:23 15.81727 -16.63940 7001 ft 164 kts 24°
2026-04-29 07:23 15.82639 -16.63218 6988 ft 162 kts 24°
2026-04-29 07:23 15.83536 -16.62513 6966 ft 162 kts 24°
2026-04-29 07:24 15.84434 -16.61807 6962 ft 162 kts 24°
2026-04-29 07:24 15.85337 -16.61098 6973 ft 161 kts 24°
2026-04-29 07:24 15.86237 -16.60392 6963 ft 162 kts 24°
2026-04-29 07:24 15.87141 -16.59683 6959 ft 162 kts 24°
2026-04-29 07:25 15.88049 -16.58970 6967 ft 162 kts 24°
2026-04-29 07:25 15.88951 -16.58261 6967 ft 163 kts 24°
2026-04-29 07:25 15.89859 -16.57548 6979 ft 163 kts 24°
2026-04-29 07:25 15.90775 -16.56832 6993 ft 162 kts 25°
2026-04-29 07:26 15.91676 -16.56135 7006 ft 160 kts 27°
2026-04-29 07:26 15.92556 -16.55435 6979 ft 161 kts 27°
2026-04-29 07:26 15.93451 -16.54730 6975 ft 160 kts 27°
2026-04-29 07:26 15.94348 -16.54024 6973 ft 160 kts 27°
2026-04-29 07:27 15.95242 -16.53320 6974 ft 160 kts 27°
2026-04-29 07:27 15.96125 -16.52626 6982 ft 159 kts 27°
2026-04-29 07:27 15.97012 -16.51930 6973 ft 159 kts 27°
2026-04-29 07:27 15.97905 -16.51230 6970 ft 159 kts 27°
2026-04-29 07:28 15.98785 -16.50536 6971 ft 159 kts 27°
2026-04-29 07:28 15.99679 -16.49835 6970 ft 159 kts 27°
2026-04-29 07:28 16.00573 -16.49131 6966 ft 160 kts 27°
2026-04-29 07:28 16.01454 -16.48438 6972 ft 160 kts 27°
2026-04-29 07:29 16.02353 -16.47731 6984 ft 159 kts 27°
2026-04-29 07:29 16.03232 -16.47039 6978 ft 159 kts 27°
2026-04-29 07:29 16.04123 -16.46337 6974 ft 160 kts 27°
2026-04-29 07:29 16.05062 -16.45731 7006 ft 153 kts
2026-04-29 07:30 16.06093 -16.45445 6951 ft 155 kts
2026-04-29 07:30 16.07157 -16.45178 6957 ft 156 kts
2026-04-29 07:30 16.08221 -16.44909 6976 ft 155 kts
2026-04-29 07:31 16.10338 -16.44380 6974 ft 154 kts
2026-04-29 07:31 16.11381 -16.44122 6971 ft 154 kts
2026-04-29 07:31 16.12441 -16.43861 6964 ft 155 kts
2026-04-29 07:31 16.13484 -16.43602 6959 ft 155 kts
2026-04-29 07:32 16.14555 -16.43340 6965 ft 155 kts
2026-04-29 07:32 16.15614 -16.43077 6963 ft 156 kts
2026-04-29 07:32 16.16676 -16.42814 6970 ft 156 kts
2026-04-29 07:32 16.17742 -16.42552 6980 ft 155 kts
2026-04-29 07:33 16.18791 -16.42293 6980 ft 155 kts
2026-04-29 07:33 16.19857 -16.42030 6972 ft 156 kts
2026-04-29 07:33 16.20919 -16.41767 6958 ft 156 kts
2026-04-29 07:33 16.21988 -16.41504 6959 ft 156 kts
2026-04-29 07:34 16.23050 -16.41242 6960 ft 156 kts
2026-04-29 07:34 16.24110 -16.40981 6968 ft 155 kts
2026-04-29 07:34 16.25165 -16.40721 6958 ft 156 kts
2026-04-29 07:34 16.26237 -16.40458 6964 ft 156 kts
2026-04-29 07:35 16.27309 -16.40195 6964 ft 156 kts
2026-04-29 07:35 16.28367 -16.39932 6966 ft 157 kts
2026-04-29 07:35 16.29440 -16.39666 6970 ft 157 kts
2026-04-29 07:35 16.30502 -16.39405 6969 ft 157 kts
2026-04-29 07:36 16.31575 -16.39141 6975 ft 157 kts
2026-04-29 07:36 16.32645 -16.38876 6972 ft 157 kts
2026-04-29 07:36 16.33708 -16.38614 6972 ft 157 kts
2026-04-29 07:36 16.34785 -16.38348 6980 ft 156 kts
2026-04-29 07:37 16.35842 -16.38087 6976 ft 156 kts
2026-04-29 07:37 16.36923 -16.37820 6973 ft 157 kts
2026-04-29 07:37 16.37983 -16.37559 6978 ft 157 kts
2026-04-29 07:37 16.39057 -16.37292 6984 ft 156 kts
2026-04-29 07:38 16.40119 -16.37032 6985 ft 156 kts
2026-04-29 07:38 16.41187 -16.36766 6980 ft 156 kts
2026-04-29 07:38 16.42244 -16.36506 6981 ft 156 kts
2026-04-29 07:38 16.43326 -16.36238 6975 ft 157 kts
2026-04-29 07:39 16.44390 -16.36000 6971 ft 157 kts 359°
2026-04-29 07:39 16.45462 -16.35778 6971 ft 157 kts 359°
2026-04-29 07:39 16.46544 -16.35554 6974 ft 156 kts 359°
2026-04-29 07:39 16.47623 -16.35330 6969 ft 156 kts 359°
2026-04-29 07:40 16.48702 -16.35105 6968 ft 156 kts 359°
2026-04-29 07:40 16.49766 -16.34886 6964 ft 156 kts 359°
2026-04-29 07:40 16.50849 -16.34663 6964 ft 156 kts 359°
2026-04-29 07:40 16.51917 -16.34441 6968 ft 156 kts 359°
2026-04-29 07:41 16.52995 -16.34221 6969 ft 157 kts 359°
2026-04-29 07:41 16.54080 -16.33998 6973 ft 156 kts 359°
2026-04-29 07:41 16.55145 -16.33779 6977 ft 156 kts 359°
2026-04-29 07:41 16.56229 -16.33554 6975 ft 157 kts 359°
2026-04-29 07:42 16.57307 -16.33330 6976 ft 157 kts 359°
2026-04-29 07:42 16.58381 -16.33108 6975 ft 157 kts 359°
2026-04-29 07:42 16.59451 -16.32886 6972 ft 157 kts 359°
2026-04-29 07:42 16.60538 -16.32661 6972 ft 157 kts 359°
2026-04-29 07:43 16.61619 -16.32437 6975 ft 157 kts 359°
2026-04-29 07:43 16.62686 -16.32217 6976 ft 157 kts 359°
2026-04-29 07:43 16.63778 -16.31990 6969 ft 157 kts 359°
2026-04-29 07:43 16.64845 -16.31767 6972 ft 157 kts 359°
2026-04-29 07:44 16.65932 -16.31544 6974 ft 157 kts 359°
2026-04-29 07:44 16.67003 -16.31320 6973 ft 157 kts 359°
2026-04-29 07:44 16.68072 -16.31100 6973 ft 157 kts 359°
2026-04-29 07:44 16.69154 -16.30875 6970 ft 157 kts 359°
2026-04-29 07:45 16.70234 -16.30648 6970 ft 157 kts 359°
2026-04-29 07:45 16.71321 -16.30423 6972 ft 157 kts 359°
2026-04-29 07:45 16.72408 -16.30198 6973 ft 158 kts 359°
2026-04-29 07:45 16.73491 -16.29973 6978 ft 157 kts 359°
2026-04-29 07:46 16.74567 -16.29749 6981 ft 157 kts 359°
2026-04-29 07:46 16.75647 -16.29524 6970 ft 157 kts 359°
2026-04-29 07:46 16.76724 -16.29301 6970 ft 157 kts 359°
2026-04-29 07:46 16.77803 -16.29075 6970 ft 157 kts 358°
2026-04-29 07:47 16.78890 -16.28850 6966 ft 157 kts 358°
2026-04-29 07:47 16.79967 -16.28627 6968 ft 157 kts 359°
2026-04-29 07:47 16.81042 -16.28404 6967 ft 157 kts 359°
2026-04-29 07:47 16.82126 -16.28178 6966 ft 157 kts 359°
2026-04-29 07:48 16.83213 -16.27954 6968 ft 157 kts 359°
2026-04-29 07:48 16.84295 -16.27728 6964 ft 158 kts 359°
2026-04-29 07:48 16.85384 -16.27502 6972 ft 158 kts 359°
2026-04-29 07:48 16.86477 -16.27274 6974 ft 157 kts 359°
2026-04-29 07:49 16.87568 -16.27046 6964 ft 158 kts 359°
2026-04-29 07:49 16.88648 -16.26822 6970 ft 158 kts 359°
2026-04-29 07:49 16.89744 -16.26592 6973 ft 158 kts 359°
2026-04-29 07:49 16.90819 -16.26367 6970 ft 158 kts 358°
2026-04-29 07:50 16.91899 -16.26143 6976 ft 157 kts 358°
2026-04-29 07:50 16.92978 -16.25917 6973 ft 157 kts 358°
2026-04-29 07:50 16.94047 -16.25680 6940 ft 162 kts
2026-04-29 07:50 16.95120 -16.25354 6965 ft 157 kts
2026-04-29 07:51 16.96179 -16.25097 6951 ft 157 kts
2026-04-29 07:51 16.97265 -16.24838 6950 ft 158 kts 359°
2026-04-29 07:51 16.98343 -16.24586 6947 ft 158 kts 359°
2026-04-29 07:51 16.99426 -16.24336 6956 ft 159 kts 359°
2026-04-29 07:52 17.00513 -16.24085 6964 ft 159 kts 359°
2026-04-29 07:52 17.01597 -16.23838 6965 ft 159 kts 359°
2026-04-29 07:52 17.02678 -16.23591 6974 ft 158 kts 359°
2026-04-29 07:52 17.03754 -16.23346 6975 ft 158 kts 359°
2026-04-29 07:53 17.04834 -16.23101 6968 ft 158 kts 359°
2026-04-29 07:53 17.05903 -16.22858 6964 ft 157 kts 359°
2026-04-29 07:53 17.06988 -16.22611 6961 ft 158 kts 359°
2026-04-29 07:53 17.08061 -16.22368 6964 ft 157 kts 359°
2026-04-29 07:54 17.09133 -16.22125 6962 ft 157 kts 359°
2026-04-29 07:54 17.10213 -16.21878 6960 ft 158 kts 359°
2026-04-29 07:54 17.11301 -16.21633 6959 ft 158 kts 359°
2026-04-29 07:54 17.12373 -16.21390 6961 ft 158 kts 359°
2026-04-29 07:55 17.13464 -16.21142 6959 ft 159 kts 359°
2026-04-29 07:55 17.14555 -16.20893 6966 ft 159 kts 359°
2026-04-29 07:55 17.15644 -16.20647 6965 ft 159 kts 359°
2026-04-29 07:55 17.16738 -16.20398 6966 ft 159 kts 359°
2026-04-29 07:56 17.17817 -16.20153 6964 ft 159 kts 359°
2026-04-29 07:56 17.18915 -16.19903 6970 ft 159 kts 359°
2026-04-29 07:56 17.20007 -16.19656 6974 ft 159 kts 359°
2026-04-29 07:56 17.21086 -16.19411 6972 ft 158 kts 358°
2026-04-29 07:57 17.22166 -16.19167 6967 ft 158 kts 359°
2026-04-29 07:57 17.23266 -16.18918 6967 ft 158 kts 359°
2026-04-29 07:57 17.24349 -16.18671 6968 ft 158 kts 359°
2026-04-29 07:57 17.25430 -16.18426 6967 ft 158 kts 359°
2026-04-29 07:58 17.26502 -16.18183 6967 ft 158 kts 359°
2026-04-29 07:58 17.27590 -16.17934 6968 ft 158 kts 359°
2026-04-29 07:58 17.28666 -16.17690 6962 ft 159 kts 359°
2026-04-29 07:58 17.29758 -16.17442 6966 ft 159 kts 359°
2026-04-29 07:59 17.30852 -16.17195 6967 ft 159 kts 359°
2026-04-29 07:59 17.31934 -16.16949 6971 ft 159 kts 359°
2026-04-29 07:59 17.33035 -16.16696 6973 ft 159 kts 359°
2026-04-29 07:59 17.34124 -16.16448 6975 ft 159 kts 358°
2026-04-29 08:00 17.35208 -16.16202 6973 ft 159 kts 358°
2026-04-29 08:00 17.36305 -16.15952 6917 ft 159 kts 357°
2026-04-29 08:00 17.37384 -16.15710 6823 ft 159 kts 357°
2026-04-29 08:00 17.38467 -16.15466 6718 ft 158 kts 357°
2026-04-29 08:01 17.39551 -16.15221 6613 ft 158 kts 357°
2026-04-29 08:01 17.40632 -16.14978 6507 ft 157 kts 357°
2026-04-29 08:01 17.41713 -16.14733 6395 ft 157 kts 357°
2026-04-29 08:01 17.42778 -16.14492 6289 ft 156 kts 357°
2026-04-29 08:02 17.43844 -16.14250 6182 ft 156 kts 357°
2026-04-29 08:02 17.44910 -16.14009 6076 ft 155 kts 358°
2026-04-29 08:02 17.45975 -16.13768 5964 ft 155 kts 358°
2026-04-29 08:02 17.47035 -16.13526 5860 ft 154 kts 358°
2026-04-29 08:03 17.48082 -16.13288 5752 ft 154 kts 358°
2026-04-29 08:03 17.49130 -16.13050 5649 ft 153 kts 358°
2026-04-29 08:03 17.50168 -16.12811 5543 ft 152 kts 358°
2026-04-29 08:03 17.51214 -16.12574 5437 ft 151 kts 357°
2026-04-29 08:04 17.52238 -16.12341 5330 ft 150 kts 357°
2026-04-29 08:04 17.53273 -16.12106 5218 ft 150 kts 358°
2026-04-29 08:04 17.54287 -16.11877 5110 ft 149 kts 358°
2026-04-29 08:04 17.55306 -16.11647 5000 ft 149 kts 358°
2026-04-29 08:05 17.56318 -16.11415 4894 ft 148 kts 358°
2026-04-29 08:05 17.57327 -16.11186 4785 ft 148 kts 359°
2026-04-29 08:05 17.58342 -16.10954 4677 ft 147 kts 359°
2026-04-29 08:05 17.59343 -16.10725 4568 ft 147 kts 359°
2026-04-29 08:06 17.60338 -16.10499 4459 ft 146 kts 359°
2026-04-29 08:06 17.61333 -16.10272 4353 ft 145 kts 359°
2026-04-29 08:06 17.62330 -16.10044 4247 ft 144 kts 358°
2026-04-29 08:06 17.63310 -16.09822 4136 ft 143 kts 359°
2026-04-29 08:07 17.64280 -16.09603 4029 ft 142 kts 359°
2026-04-29 08:07 17.65262 -16.09379 3917 ft 142 kts 360°
2026-04-29 08:07 17.66234 -16.09158 3807 ft 141 kts 360°
2026-04-29 08:07 17.67194 -16.08938 3700 ft 141 kts 359°
2026-04-29 08:08 17.68160 -16.08717 3587 ft 140 kts
2026-04-29 08:08 17.69109 -16.08501 3482 ft 139 kts
2026-04-29 08:08 17.70065 -16.08284 3371 ft 139 kts
2026-04-29 08:08 17.71017 -16.08065 3266 ft 138 kts
2026-04-29 08:09 17.71960 -16.07850 3155 ft 137 kts
2026-04-29 08:09 17.72890 -16.07638 3048 ft 136 kts
2026-04-29 08:09 17.73819 -16.07426 2940 ft 135 kts
2026-04-29 08:09 17.74736 -16.07216 2830 ft 134 kts
2026-04-29 08:10 17.75646 -16.07010 2724 ft 133 kts
2026-04-29 08:10 17.76556 -16.06803 2612 ft 132 kts
2026-04-29 08:10 17.77459 -16.06598 2526 ft 132 kts
2026-04-29 08:10 17.78353 -16.06393 2459 ft 131 kts
2026-04-29 08:11 17.79252 -16.06186 2405 ft 130 kts
2026-04-29 08:11 17.80146 -16.05981 2343 ft 130 kts
2026-04-29 08:11 17.81035 -16.05778 2281 ft 129 kts
2026-04-29 08:11 17.81911 -16.05578 2217 ft 129 kts
2026-04-29 08:12 17.82792 -16.05374 2161 ft 128 kts
2026-04-29 08:12 17.83675 -16.05169 2128 ft 125 kts
2026-04-29 08:12 17.84513 -16.04973 2081 ft 122 kts
2026-04-29 08:12 17.85339 -16.04780 2040 ft 118 kts
2026-04-29 08:13 17.86126 -16.04597 2049 ft 111 kts
2026-04-29 08:13 17.86840 -16.04425 2057 ft 100 kts 359°
2026-04-29 08:13 17.87502 -16.04272 2028 ft 93 kts 358°
2026-04-29 08:13 17.88115 -16.04129 2012 ft 87 kts 357°
2026-04-29 08:14 17.88714 -16.03994 1976 ft 86 kts 357°
2026-04-29 08:14 17.89313 -16.03859 1970 ft 86 kts 358°
2026-04-29 08:14 17.89900 -16.03725 1980 ft 87 kts 358°
2026-04-29 08:14 17.90498 -16.03588 1993 ft 87 kts 358°
2026-04-29 08:15 17.91100 -16.03451 1997 ft 87 kts 358°
2026-04-29 08:15 17.91697 -16.03314 2005 ft 87 kts 359°
2026-04-29 08:15 17.92266 -16.03035 2041 ft 84 kts 11°
2026-04-29 08:15 17.92847 -16.02919 1963 ft 86 kts 355°
2026-04-29 08:16 17.93441 -16.02814 1987 ft 86 kts 358°
2026-04-29 08:16 17.94035 -16.02690 2006 ft 85 kts 358°
2026-04-29 08:16 17.94621 -16.02556 1994 ft 88 kts
2026-04-29 08:16 17.95082 -16.02084 1997 ft 99 kts 51°
2026-04-29 08:17 17.95112 -16.01355 2060 ft 98 kts 75°
2026-04-29 08:17 17.95049 -16.00635 2001 ft 100 kts 76°
2026-04-29 08:17 17.94980 -15.99892 1983 ft 101 kts 77°
2026-04-29 08:17 17.94912 -15.99157 1988 ft 100 kts 77°
2026-04-29 08:18 17.94852 -15.98428 1993 ft 100 kts 77°
2026-04-29 08:18 17.94801 -15.97688 2000 ft 100 kts 76°
2026-04-29 08:18 17.94761 -15.96966 2001 ft 99 kts 75°
2026-04-29 08:18 17.94735 -15.96237 2003 ft 98 kts 73°
2026-04-29 08:19 17.94724 -15.95516 2002 ft 97 kts 72°
2026-04-29 08:19 17.94726 -15.94806 1996 ft 97 kts 71°
2026-04-29 08:19 17.94741 -15.94089 1994 ft 97 kts 70°
2026-04-29 08:19 17.94769 -15.93371 1996 ft 97 kts 68°
2026-04-29 08:20 17.94811 -15.92669 1997 ft 97 kts 67°
2026-04-29 08:20 17.94869 -15.91958 1995 ft 97 kts 66°
2026-04-29 08:20 17.94937 -15.91253 1993 ft 98 kts 65°
2026-04-29 08:20 17.95020 -15.90536 1999 ft 97 kts 64°
2026-04-29 08:21 17.95119 -15.89830 1999 ft 98 kts 64°
2026-04-29 08:21 17.95230 -15.89109 2003 ft 98 kts 62°
2026-04-29 08:21 17.95353 -15.88414 2004 ft 97 kts 61°
2026-04-29 08:21 17.95490 -15.87717 2005 ft 96 kts 59°
2026-04-29 08:22 17.95639 -15.87033 2001 ft 95 kts 58°
2026-04-29 08:22 17.95798 -15.86359 1999 ft 94 kts 57°
2026-04-29 08:22 17.95970 -15.85693 1996 ft 94 kts 56°
2026-04-29 08:22 17.96157 -15.85024 1990 ft 94 kts 55°
2026-04-29 08:23 17.96352 -15.84366 1990 ft 94 kts 54°
2026-04-29 08:23 17.96561 -15.83708 2000 ft 94 kts 53°
2026-04-29 08:23 17.96942 -15.83214 2216 ft 86 kts 20°
2026-04-29 08:23 17.97490 -15.82923 2381 ft 90 kts 15°
2026-04-29 08:24 17.98060 -15.82620 2569 ft 91 kts 15°
2026-04-29 08:24 17.98633 -15.82313 2757 ft 92 kts 14°
2026-04-29 08:24 17.99206 -15.81997 2936 ft 94 kts 14°
2026-04-29 08:24 17.99798 -15.81665 3118 ft 95 kts 15°
2026-04-29 08:25 18.00383 -15.81325 3222 ft 98 kts 13°
2026-04-29 08:25 18.00976 -15.80935 3110 ft 100 kts 14°
2026-04-29 08:25 18.01563 -15.80569 2956 ft 98 kts
2026-04-29 08:25 18.02183 -15.80270 2775 ft 96 kts
2026-04-29 08:26 18.02801 -15.80066 2645 ft 84 kts 349°
2026-04-29 08:26 18.03322 -15.80247 2408 ft 84 kts 315°
2026-04-29 08:26 18.03835 -15.80565 2230 ft 84 kts 317°
2026-04-29 08:26 18.04332 -15.80864 2059 ft 82 kts 317°
2026-04-29 08:27 18.04825 -15.81163 1983 ft 79 kts 320°
2026-04-29 08:27 18.05305 -15.81442 1975 ft 77 kts 321°
2026-04-29 08:27 18.05775 -15.81714 1986 ft 76 kts 321°
2026-04-29 08:27 18.06239 -15.81984 1997 ft 75 kts 321°
2026-04-29 08:28 18.06704 -15.82256 2006 ft 76 kts 321°
2026-04-29 08:28 18.07171 -15.82532 2020 ft 76 kts 321°
2026-04-29 08:28 18.07641 -15.82811 2021 ft 76 kts 321°
2026-04-29 08:28 18.08106 -15.83089 2012 ft 77 kts 321°
2026-04-29 08:29 18.08571 -15.83367 2021 ft 76 kts 321°
2026-04-29 08:29 18.09037 -15.83646 2013 ft 76 kts 321°
2026-04-29 08:29 18.09505 -15.83927 2011 ft 77 kts 321°
2026-04-29 08:29 18.09984 -15.84215 2010 ft 78 kts 321°
2026-04-29 08:30 18.10457 -15.84497 2021 ft 77 kts 321°
2026-04-29 08:30 18.11399 -15.85070 2020 ft 77 kts 320°
2026-04-29 08:30 18.11867 -15.85355 2017 ft 77 kts 320°
2026-04-29 08:31 18.12336 -15.85641 2017 ft 77 kts 321°
2026-04-29 08:31 18.12807 -15.85926 2012 ft 77 kts 320°
2026-04-29 08:31 18.13269 -15.86207 2013 ft 76 kts 320°
2026-04-29 08:31 18.13740 -15.86492 2014 ft 76 kts 320°
2026-04-29 08:32 18.14202 -15.86773 2009 ft 76 kts 320°
2026-04-29 08:32 18.14666 -15.87054 2014 ft 76 kts 320°
2026-04-29 08:32 18.15126 -15.87335 2013 ft 76 kts 320°
2026-04-29 08:32 18.15594 -15.87618 2005 ft 78 kts 320°
2026-04-29 08:33 18.16074 -15.87909 2006 ft 78 kts 321°
2026-04-29 08:33 18.16547 -15.88196 2017 ft 77 kts 320°
2026-04-29 08:33 18.17018 -15.88481 2014 ft 78 kts 320°
2026-04-29 08:33 18.17488 -15.88767 2012 ft 78 kts 320°
2026-04-29 08:34 18.17960 -15.89054 2011 ft 78 kts 320°
2026-04-29 08:34 18.18429 -15.89338 2014 ft 77 kts 320°
2026-04-29 08:34 18.18903 -15.89626 2020 ft 76 kts 320°
2026-04-29 08:34 18.19366 -15.89907 2014 ft 75 kts 320°
2026-04-29 08:35 18.19821 -15.90183 1980 ft 75 kts 319°
2026-04-29 08:35 18.20277 -15.90460 1916 ft 76 kts 319°
2026-04-29 08:35 18.20746 -15.90746 1836 ft 77 kts 320°
2026-04-29 08:35 18.21218 -15.91031 1745 ft 78 kts 320°
2026-04-29 08:36 18.21695 -15.91321 1640 ft 79 kts 320°
2026-04-29 08:36 18.22174 -15.91610 1544 ft 78 kts 319°
2026-04-29 08:36 18.22647 -15.91899 1440 ft 78 kts 319°
2026-04-29 08:36 18.23119 -15.92185 1337 ft 78 kts 319°
2026-04-29 08:37 18.23595 -15.92473 1232 ft 78 kts 319°
2026-04-29 08:37 18.24068 -15.92761 1131 ft 77 kts 319°
2026-04-29 08:37 18.24536 -15.93045 1027 ft 76 kts 319°
2026-04-29 08:37 18.24998 -15.93326 925 ft 76 kts 319°
2026-04-29 08:38 18.25463 -15.93608 822 ft 76 kts 319°
2026-04-29 08:38 18.25923 -15.93888 722 ft 76 kts 319°
2026-04-29 08:38 18.26388 -15.94170 623 ft 76 kts 318°
2026-04-29 08:38 18.26855 -15.94454 516 ft 77 kts 318°
2026-04-29 08:39 18.27315 -15.94731 421 ft 74 kts 317°
2026-04-29 08:39 18.27756 -15.95002 324 ft 72 kts 317°
2026-04-29 08:39 18.28191 -15.95266 226 ft 71 kts 317°
2026-04-29 08:39 18.28614 -15.95523 149 ft 69 kts 322°
2026-04-29 08:40 18.29012 -15.95761 70 ft 63 kts 327°
2026-04-29 08:40 18.29369 -15.95982 41 ft 53 kts 328°
2026-04-29 08:40 18.29649 -15.96163 30 ft 40 kts 333°
2026-04-29 08:40 18.29867 -15.96294 24 ft 31 kts 341°
2026-04-29 08:41 18.30037 -15.96391 10 ft 24 kts 342°
2026-04-29 08:41 18.30127 -15.96442 7 ft 1 kts 328°
2026-04-29 08:41 18.30129 -15.96443 7 ft 1 kts 332°
2026-04-29 08:41 18.30149 -15.96454 7 ft 5 kts 334°
2026-04-29 08:42 18.30190 -15.96480 7 ft 8 kts 328°
2026-04-29 08:42 18.30286 -15.96541 49 ft 27 kts 332°
2026-04-29 08:42 18.30515 -15.96677 72 ft 48 kts 342°
2026-04-29 08:42 18.30801 -15.96865 66 ft 41 kts 328°
2026-04-29 08:43 18.30954 -15.96959 36 ft 11 kts 28°
2026-04-29 08:43 18.31004 -15.96931 5 ft 5 kts 46°
2026-04-29 08:43 18.31027 -15.96896 5 ft 5 kts 61°
2026-04-29 08:43 18.31046 -15.96858 5 ft 5 kts 63°
2026-04-29 08:44 18.31057 -15.96814 5 ft 7 kts 98°
2026-04-29 08:44 18.31011 -15.96771 5 ft 11 kts 149°
2026-04-29 08:44 18.30943 -15.96729 5 ft 9 kts 148°
2026-04-29 08:44 18.30897 -15.96700 5 ft 6 kts 148°
2026-04-29 08:45 18.30862 -15.96673 5 ft 8 kts 126°
2026-04-29 08:45 18.30846 -15.96623 5 ft 5 kts 81°
2026-04-29 08:45 18.30866 -15.96586 5 ft 5 kts 41°
2026-04-29 08:45 18.30891 -15.96552 5 ft 5 kts 59°
2026-04-29 08:46 18.30913 -15.96514 5 ft 6 kts 59°
2026-04-29 08:46 18.30933 -15.96475 5 ft 4 kts 61°
2026-04-29 08:46 18.30930 -15.96449 5 ft 3 kts 154°
2026-04-29 08:46 18.30923 -15.96447 5 ft 0 kts 160°